This is the latest recevied weather packets stored in our database for station/object E20YUC-1. If no packets are shown the sender has not sent any weather packets the latest 1 day(s).
| Time | Temp. | Humidity | Pressure | Rain* | Wind** | Luminosity | Snow |
|---|---|---|---|---|---|---|---|
| 1778050786 | 39.44° C | 49% | 993.9 hPa | 0 mm | 0 m/s | - | - |
| 1778050486 | 38.89° C | 49% | 994.2 hPa | 0 mm | 0 m/s | - | - |
| 1778048986 | 38.89° C | 49% | 994.5 hPa | 0 mm | 0 m/s | - | - |
| 1778048687 | 38.89° C | 49% | 994.8 hPa | 0 mm | 0 m/s | - | - |
| 1778047485 | 39.44° C | 50% | 995.2 hPa | 0 mm | 0 m/s | - | - |
| 1778047187 | 38.89° C | 50% | 995.4 hPa | 0 mm | 0 m/s | - | - |
| 1778046885 | 38.89° C | 51% | 995.3 hPa | 0 mm | 0 m/s | - | - |
| 1778046225 | 38.33° C | 52% | 995.6 hPa | 0 mm | 0 m/s | - | - |
| 1778045925 | 37.78° C | 52% | 995.7 hPa | 0 mm | 0 m/s | - | - |
| 1778045627 | 37.78° C | 52% | 995.8 hPa | 0 mm | 0 m/s | - | - |
| 1778045325 | 37.78° C | 52% | 995.7 hPa | 0 mm | 0 m/s | - | - |
| 1778045025 | 37.78° C | 52% | 995.9 hPa | 0 mm | 0 m/s | - | - |
| 1778044425 | 37.78° C | 53% | 996.3 hPa | 0 mm | 0 m/s | - | - |
| 1778042864 | 36.67° C | 56% | 996.3 hPa | 0 mm | 0.89 m/s, 22° | - | - |
| 1778042566 | 36.67° C | 57% | 996.5 hPa | 0 mm | 0.89 m/s, 22° | - | - |
| 1778042264 | 36.11° C | 58% | 996.6 hPa | 0 mm | 0 m/s | - | - |
| 1778041664 | 36.11° C | 57% | 996.8 hPa | 0 mm | 0 m/s | - | - |
| 1778041364 | 36.67° C | 57% | 996.9 hPa | 0 mm | 2.68 m/s, 22° | - | - |
| 1778041066 | 36.67° C | 58% | 997 hPa | 0 mm | 0.89 m/s, 22° | - | - |
| 1778040764 | 36.67° C | 58% | 997 hPa | 0 mm | 0 m/s | - | - |
| 1778040164 | 36.11° C | 59% | 997 hPa | 0 mm | 0 m/s | - | - |
| 1778039864 | 36.11° C | 60% | 997 hPa | 0 mm | 0 m/s | - | - |
| 1778039566 | 35.56° C | 61% | 997.1 hPa | 0 mm | 0 m/s | - | - |
| 1778039204 | 35° C | 61% | 997.3 hPa | 0 mm | 0 m/s | - | - |
| 1778038904 | 35° C | 61% | 997.3 hPa | 0 mm | 0 m/s | - | - |
* Rain latest hour (hover to see other rain measurements)
** Current wind speed in m/s (hover to see current wind gust speed)